Flag for Canada Weather past 2 weeks in Qikiqtarjuaq, Nunavut, Canada

Now
36 °F

Light rain. Mostly cloudy.


Feels Like: 33 °F
Forecast: 32 / 36 °F
Wind: 3 mph from Northeast

Location: Broughton Island Airport

Current Time: Jul 1, 2015 at 3:33:24 PM

Latest Report: Jul 1, 2015 at 3:00 PM


Visibility: 9 mi

Pressure: 30.01 "Hg

Humidity: 93%

Dew point: 34 °F

Location of QikiqtarjuaqLocation

Historic Weather in Qikiqtarjuaq — Graph

°F

Qikiqtarjuaq temperature yesterday

Maximum temperature yesterday: 37 °F (at 1:00 PM)
Minimum temperature yesterday: 32 °F (at 12:00 AM)
Average temperature yesterday: 34 °F

Past Weeks' High & Low Weather Summary

 TemperatureHumidityPressure
High48 °F (Jun 23, 11:00 AM)100% (Jun 16, 4:00 PM)30.04 "Hg (Jun 16, 4:00 PM)
Low25 °F (Jun 18, 2:00 AM)50% (Jun 23, 11:00 AM)29.54 "Hg (Jun 20, 6:00 PM)
Average33 °F89%29.82 "Hg
* Reported Jun 16 2:00 PM — Jul 1 2:00 PM, Qikiqtarjuaq, Weather by CustomWeather, © 2015

Note: Actual official high and low records may vary slightly from our data, if they occured in-between our weather recording intervals... More about our weather records

Advertising

Qikiqtarjuaq weather history for previous 24 hours

 ConditionsComfort  
Time TempWeatherWind HumidityBarometerVisibility
2:00 PM
Wed, Jul 1
36 °FOvercast.3 mph93%30.00 "Hg9 mi
1:00 PM36 °FLight rain. Cloudy.5 mph93%30.00 "Hg9 mi
12:56 PM36 °FLight rain. Cloudy.3 mph93%30.00 "Hg9 mi
12:00 PM36 °FMostly cloudy.5 mph93%30.00 "Hg9 mi
11:59 AM36 °FMostly cloudy.5 mph93%30.00 "Hg9 mi
11:03 AM34 °FLight rain. Mostly cloudy.3 mph93%30.01 "Hg9 mi
10:00 AM34 °FLight rain. More clouds than sun.3 mph100%30.01 "Hg12 mi
9:00 AM34 °FLight rain. Cloudy.2 mph100%30.02 "Hg12 mi
8:00 AM34 °FLight rain. Fog.No wind93%30.02 "Hg4 mi
7:46 AM34 °FLight rain. More clouds than sun.2 mph93%30.01 "Hg12 mi
6:00 AM32 °FLight rain. Fog.3 mph100%30.01 "Hg1 mi
5:00 AM32 °FIce fog.2 mph100%30.01 "Hg1 mi
4:55 AM32 °FIce fog.2 mph100%30.01 "Hg1 mi
4:00 AM32 °FIce fog.3 mph100%30.00 "Hg2 mi
3:59 AM32 °FIce fog.3 mph100%30.00 "Hg2 mi
3:01 AM32 °FIce fog.5 mph100%30.00 "Hg2 mi
2:00 AM32 °FIce fog.3 mph100%29.99 "Hg6 mi
1:51 AM32 °FIce fog.2 mph100%29.99 "Hg5 mi
1:04 AM34 °FFog.No wind93%29.98 "Hg2 mi
12:59 AM34 °FFog.No wind100%29.98 "Hg3 mi
12:00 AM32 °FFog.No wind100%29.98 "Hg0 mi
11:45 PM
Tue, Jun 30
32 °FFog.2 mph100%29.98 "Hg0 mi
11:00 PM34 °FFog.2 mph93%29.98 "Hg0 mi
10:00 PM34 °FFog.3 mph100%29.97 "Hg0 mi
9:00 PM34 °FFog.2 mph93%29.96 "Hg1 mi
8:55 PM34 °FFog.2 mph93%29.96 "Hg1 mi
8:00 PM36 °FLow clouds.3 mph93%29.95 "Hg9 mi
7:00 PM34 °FLow clouds.6 mph100%29.94 "Hg8 mi
6:00 PM34 °FFog.5 mph100%29.93 "Hg3 mi
5:00 PM34 °FFog.6 mph100%29.93 "Hg3 mi
4:00 PM36 °FFog.6 mph93%29.93 "Hg2 mi
3:00 PM34 °FFog.6 mph100%29.91 "Hg3 mi
Weather by CustomWeather, © 2015

See weather overviewHow to use our weather pages